Location: Observatoire
(46.1952°N, 5.3391°E)
Time: 18:07:53
(UTC+01:00)

Tiros 1 - Visible Passes

Search period start: 16 February 2026 00:00
Search period end: 26 February 2026 00:00
Orbit: 618 x 649 km, 48.4° (Epoch: 15 February)

Date Brightness Start Highest point End Pass type
(mag) Time Alt. Az. Time Alt. Az. Time Alt. Az.
23 Feb 9.7 06:07:47 10° S 06:10:44 17° SE 06:13:41 10° E visible
24 Feb 8.8 06:27:57 10° SSW 06:32:01 31° SE 06:36:03 10° E visible
25 Feb 9.7 05:09:58 10° SSE 05:12:18 14° SE 05:14:37 10° ESE visible
25 Feb 7.9 06:48:56 10° SW 06:53:27 52° SSE 06:57:56 10° ENE visible
